Regional Weather Roundup
Issued by NWS

Home | Current Version | Previous Version | Graphics & Text | Print | Product List | Glossary On
Versions: 1 2 3 4 5 6 7 8 9 10 11 12 13 14 15 16 17 18 19 20 21 22 23 24 25 26 27 28 29 30 31 32 33 34 35 36 37 38 39 40 41 42 43 44 45 46 47 48 49 50
000
ASUS45 KCYS 220510
RWRWY

WYOMING REGIONAL WEATHER ROUNDUP
NATIONAL WEATHER SERVICE CHEYENNE WY
1100 PM MDT THU SEP 21 2017

NOTE:  "FAIR" INDICATES FEW OR NO CLOUDS BELOW 12,000 FEET
WITH NO SIGNIFICANT WEATHER AND/OR OBSTRUCTIONS TO VISIBILITY.

WYZ001-220600-
YELLOWSTONE NATIONAL PARK

CITY           SKY/WX    TMP DP  RH WIND       PRES   REMARKS
LK YELLOWSTONE NOT AVBL
W YELLOWSTONE  NOT AVBL

$$
WYZ002>013-054>058-071-098>099-220600-
NORTHERN WYOMING

CITY           SKY/WX    TMP DP  RH WIND       PRES   REMARKS
JACKSON        CLOUDY    34  33  96 N5        29.79R WCI  30
CODY           MIX PCPN  37  34  89 NW10G17   29.88S WCI  30
GREYBULL       CLOUDY    45  41  86 W9        29.82R
WORLAND        CLOUDY    46  40  79 NW8       29.83S
SHERIDAN       CLOUDY    45  41  86 W8        29.92R
BUFFALO        FAIR      44  34  67 NW10      29.91S
GILLETTE       FAIR      45  33  63 N13       29.86R
HULETT         FAIR      46  32  57 NE7       29.86R
NEWCASTLE      FAIR      55  36  47 CALM      29.72S

$$
WYZ014>020-022>026-101>103-220600-
CENTRAL WYOMING

CITY           SKY/WX    TMP DP  RH WIND       PRES   REMARKS
BIG PINEY      CLOUDY    46  44  93 E6        29.74R
PINEDALE       LGT RAIN  43  43 100 NW8       29.75S
DUBOIS         CLOUDY    41  37  87 SE17      29.76S
LANDER           N/A    N/A N/A N/A MISG      29.79R
RIVERTON       FAIR      43  38  82 N13       29.77S
CASPER         FAIR      44  37  76 NE17G23   29.85S
DOUGLAS        FAIR      50  38  63 NW12      29.82R

$$
WYZ021-027>030-104>119-220600-
SOUTHERN WYOMING

CITY           SKY/WX    TMP DP  RH WIND       PRES   REMARKS
EVANSTON       FLURRIES  35  34  96 W15       29.84R WCI  25
KEMMERER         N/A     39  37  93 W17G24    29.79R WCI  30
FORT BRIDGER   CLOUDY    44  40  88 W24G30    29.78R
ROCK SPRINGS   MOCLDY    57  26  30 SW12      29.70S
DIXON          FAIR      64  19  17 S9        29.78S
RAWLINS        FAIR      51  26  37 SE3       29.78F
SARATOGA       FAIR      46  27  46 S8        29.82S
LARAMIE        FAIR      50  22  33 W3        29.83R
CHEYENNE       FAIR      52  29  41 NW6       29.72S
TORRINGTON     FAIR      62  36  37 NE21      29.61F
PINE BLUFFS    FAIR      61  30  31 SE8       29.66F

$$



USA.gov is the U.S. government's official web portal to all federal, state and local government web resources and services.